Torna al catalogo

STARLINK-31138

AttivoComunicazioniVLEO
NORAD 58806·PAYLOAD·🇺🇸 United States

Lanciato Jan 15, 2024 da Cape Canaveral Space Force Station

Loading…

Prossimi Passaggi (prossime 24 ore)

TLE

AggiornatoSource: CelesTrak SupGP

Epoca: Sep 15, 2026, 02:48 UTC

1 58806C 24012V   26258.11715278 -.00021515  00000+0 -77933-3 0  2586
2 58806  43.0013 175.6009 0001404 270.7751 130.3747 15.27587402    13

Traccia STARLINK-31138 in tempo reale con AllMySat

Download on the App Store